Home   Weather   Fürstenfeld   Past weeks

Flag for Austria Past Weather in Fürstenfeld, Styria, Austria — Yesterday and Last 2 Weeks

Now
37 °F

Partly sunny.


Feels Like: 37 °F
Forecast: 43 / 68 °F
Wind: No wind

Location: Murska Sobota

Current Time: Apr 24, 2017 at 7:20:20 am

Latest Report: Apr 24, 2017 at 6:00 am


Visibility: N/A

Pressure: 30.22 "Hg

Humidity: 88%

Dew Point: 33 °F

Location of FürstenfeldLocation

Past Weather in Fürstenfeld — Graph

°F

Fürstenfeld Temperature Yesterday

Maximum temperature yesterday: 55 °F (at 3:00 pm)
Minimum temperature yesterday: 42 °F (at 6:00 am)
Average temperature yesterday: 48 °F

High & Low Weather Summary for the Past Weeks

 TemperatureHumidityPressure
High75 °F (Apr 10, 5:00 pm)97% (Apr 16, 8:00 am)30.47 "Hg (Apr 16, 8:00 am)
Low25 °F (Apr 21, 6:00 am)29% (Apr 21, 6:00 pm)29.82 "Hg (Apr 13, 4:00 pm)
Average49 °F64%30.12 "Hg
* Reported Apr 9 5:00 am — Apr 24 5:00 am, Fürstenfeld, Weather by CustomWeather, © 2017

Note: Actual official high and low records may vary slightly from our data, if they occured in-between our weather recording intervals... More about our weather records

Advertising

Fürstenfeld Weather History for the Previous 24 Hours

Scroll right to see more
 ConditionsComfort  
Time TempWeatherWind HumidityBarometerVisibility
5:00 am
Mon, Apr 24
36 °FOvercast.No wind87%30.22 "HgN/A
4:00 am37 °FPassing clouds.No wind82%30.23 "HgN/A
3:00 am40 °FPassing clouds.1 mph77%30.23 "HgN/A
2:00 am41 °FPassing clouds.1 mph74%30.23 "HgN/A
1:00 am42 °FOvercast.1 mph71%30.24 "HgN/A
12:00 am45 °FOvercast.1 mph60%30.24 "HgN/A
11:00 pm
Sun, Apr 23
45 °FOvercast.1 mph55%30.23 "HgN/A
10:00 pm47 °FOvercast.2 mph52%30.21 "HgN/A
9:00 pm49 °FOvercast.2 mph48%30.19 "HgN/A
8:00 pm51 °FOvercast.2 mph43%30.16 "HgN/A
7:00 pm53 °FOvercast.2 mph42%30.14 "HgN/A
6:00 pm54 °FOvercast.2 mph36%30.13 "HgN/A
5:00 pm54 °FOvercast.2 mph39%30.11 "HgN/A
4:00 pm54 °FPartly sunny.3 mph36%30.11 "HgN/A
3:00 pm55 °FPartly sunny.2 mph38%30.11 "HgN/A
2:00 pm53 °FPartly sunny.2 mph41%30.13 "HgN/A
1:00 pm52 °FPartly sunny.2 mph50%30.14 "HgN/A
12:00 pm51 °FPartly sunny.2 mph54%30.15 "HgN/A
11:00 am51 °FPartly sunny.2 mph57%30.16 "HgN/A
9:00 am47 °FPartly sunny.2 mph70%30.16 "HgN/A
8:00 am45 °FPartly sunny.2 mph81%30.15 "HgN/A
7:00 am42 °FPartly sunny.1 mph88%30.12 "HgN/A
Weather by CustomWeather, © 2017

See weather overviewHow to use our weather pages